GFSNW_prec_snow_270.txt.gz
Snowfall_Accumulation
0.0 0.0 0.0 0.0 0.0 0.0 0.0 0.0 25.0 0.0 0.0 19.0 35.9 24.8 7.8 0.5 0.1 0.1 2.9 5.1 9.1 11.9 11.9 14.0 18.4 12.5 4.0 0.3 2.6 5.7 4.7 19.1 11.1 6.7 1.6 1.6 7.6 21.9 34.1 52.6 47.2 43.8 41.4 39.8
0.0 0.0 0.0 0.0 0.0 0.0 0.0 12.6 7.9 0.0 0.0 30.5 18.1 5.9 3.4 2.6 3.7 2.0 4.8 7.7 10.9 12.8 14.7 15.8 10.6 8.9 1.3 0.0 2.2 9.3 7.1 17.8 12.9 8.1 1.3 0.5 7.6 8.2 16.8 30.6 39.8 48.2 42.7 44.1
0.0 0.0 0.0 0.0 0.0 0.0 0.0 7.4 33.1 5.9 5.4 3.3 6.3 8.0 7.7 7.6 0.0 2.5 0.9 8.8 9.9 11.4 6.9 7.2 9.4 7.2 1.7 0.0 0.4 0.0 0.4 15.0 13.7 12.4 12.6 10.2 15.0 10.4 7.9 19.3 42.4 29.9 30.1 27.6
0.0 0.0 0.0 0.0 0.0 0.0 0.0 21.9 31.6 0.4 23.0 17.5 9.2 8.9 10.9 7.4 6.3 1.0 0.7 9.1 8.1 10.8 13.1 6.8 4.5 4.8 3.4 0.2 0.9 0.5 1.8 17.3 9.4 6.6 7.4 4.7 5.9 10.1 9.6 13.1 14.4 22.8 25.8 15.6
0.0 0.0 0.0 0.0 0.0 0.0 0.0 62.0 14.6 4.5 5.0 1.1 8.1 16.6 16.6 8.1 2.7 9.5 4.8 5.9 3.8 6.1 10.9 7.6 8.1 5.6 2.4 5.1 0.1 0.7 1.0 9.2 10.2 8.3 6.1 3.2 7.6 9.7 6.5 6.0 10.3 12.6 7.2 13.4
0.0 0.0 0.0 0.0 0.0 0.0 0.0 3.1 0.0 11.6 5.3 4.1 10.3 9.1 6.1 6.2 6.9 0.6 2.3 5.1 7.9 7.0 4.5 1.2 1.1 1.9 2.2 4.2 5.9 5.3 5.9 8.7 7.2 8.5 2.4 3.8 9.9 11.8 7.1 5.3 4.2 4.8 6.9 13.6
0.0 0.0 0.0 0.0 0.0 0.0 0.0 0.0 1.4 23.6 18.7 9.7 6.5 3.3 4.3 5.6 5.0 8.8 2.8 1.3 5.1 0.0 0.0 0.0 0.0 0.9 0.5 0.4 1.8 2.4 7.6 7.2 9.7 8.1 6.2 17.8 10.1 4.2 3.3 2.4 2.3 3.1 3.1 3.3
0.0 0.0 0.0 0.0 0.0 0.0 0.0 0.0 0.2 19.3 19.0 5.0 6.2 4.7 5.5 1.5 3.1 4.7 3.4 1.2 0.0 0.0 1.8 6.6 7.2 3.9 3.1 1.1 0.4 0.8 2.3 7.5 14.4 13.1 6.6 4.2 2.3 2.3 2.7 2.6 2.9 2.3 1.4 0.8
0.0 0.0 0.0 0.0 0.0 0.0 0.0 0.0 0.0 11.8 26.9 9.2 2.0 8.1 6.0 7.0 5.4 6.4 3.7 0.0 0.0 0.0 6.1 12.6 10.8 5.6 3.2 2.1 1.7 0.0 1.2 4.8 19.5 17.3 12.6 6.9 3.0 0.7 0.1 1.8 5.3 1.3 0.3 0.3
0.0 0.0 0.0 0.0 0.0 0.0 0.0 0.0 0.0 6.3 33.4 1.3 1.6 4.7 6.8 5.5 5.3 7.8 2.3 2.7 1.6 2.3 11.3 12.5 9.6 6.5 4.1 6.2 4.4 3.7 7.8 11.9 22.8 18.9 22.5 8.4 1.8 1.1 0.5 7.8 9.0 1.5 0.2 0.1
0.0 0.0 0.0 0.0 0.0 0.0 0.0 0.0 0.0 0.0 20.8 1.6 0.0 0.3 1.2 3.4 3.0 7.7 6.0 11.0 9.9 14.5 17.4 14.6 10.8 9.5 8.2 4.8 2.6 5.6 7.9 12.8 11.4 15.1 21.9 16.3 2.8 1.9 5.0 6.3 1.3 0.9 0.4 0.2
0.0 0.0 0.0 0.0 0.0 0.0 0.0 4.7 0.0 0.0 3.9 0.3 0.0 0.0 0.0 0.0 0.0 2.8 5.0 9.1 10.0 13.6 19.9 14.5 8.9 7.1 8.5 5.4 10.3 2.5 9.1 5.2 9.0 9.3 16.1 8.7 6.5 5.6 2.4 2.2 2.3 2.2 0.9 0.3
0.0 0.0 0.0 0.0 0.0 0.0 0.0 1.7 0.0 0.0 13.9 0.3 0.0 0.0 0.0 0.0 0.0 0.0 5.5 3.9 2.7 7.1 7.8 10.1 9.1 9.1 5.0 7.2 4.4 3.6 4.7 0.8 7.3 10.1 7.7 3.9 6.7 4.7 2.1 0.9 3.9 2.0 0.8 1.1
0.0 0.0 0.0 0.0 0.0 0.0 0.0 0.0 0.0 0.0 3.1 15.2 4.1 0.0 0.0 0.0 0.0 0.0 0.0 0.0 0.0 0.0 0.0 9.8 8.3 4.8 0.4 3.7 3.8 1.5 4.4 3.4 5.9 11.0 7.1 4.0 2.8 3.4 2.5 2.3 2.1 0.8 0.4 0.8
0.0 0.0 0.0 0.0 0.0 0.0 0.0 0.0 0.0 0.0 1.8 17.0 6.8 0.0 0.0 0.0 0.0 0.0 0.0 0.0 0.3 1.4 6.7 9.1 4.5 1.3 2.5 0.9 3.0 2.9 1.1 2.9 9.9 11.0 10.7 9.1 6.5 5.5 4.6 3.9 2.6 1.0 0.9 2.0
0.0 0.0 0.0 0.0 0.0 0.0 0.0 44.0 0.0 0.0 0.0 12.4 11.0 0.0 0.0 0.0 0.0 0.0 0.0 0.0 0.3 1.0 3.1 5.9 1.6 0.0 0.9 4.5 5.5 4.2 4.5 2.7 2.8 5.6 6.5 9.1 9.2 6.2 3.1 2.5 0.9 0.1 0.1 0.0
0.0 0.0 0.0 0.0 0.0 0.0 4.9 16.9 0.6 0.0 0.0 16.9 14.4 7.4 0.0 0.0 0.0 0.0 0.0 0.0 0.4 2.8 5.9 4.3 2.0 1.4 1.7 6.1 2.9 1.7 0.9 0.5 0.3 0.6 0.5 1.6 1.0 0.9 0.1 0.0 0.0 0.0 0.0 0.0
0.0 0.0 0.0 0.0 0.0 0.0 3.0 0.0 0.0 0.0 2.8 5.7 16.1 11.0 6.0 0.0 5.2 8.8 0.9 5.7 3.3 3.0 3.4 2.4 2.0 1.7 2.8 12.0 1.0 0.0 0.0 0.0 0.0 0.0 0.0 0.0 0.0 0.0 0.0 0.0 0.0 0.0 0.0 0.0
0.0 0.0 0.0 0.0 0.0 17.0 0.0 0.0 0.0 0.0 7.5 16.8 7.8 5.0 15.3 0.0 5.5 5.0 6.3 2.7 11.8 1.7 5.9 2.1 2.1 6.5 12.3 8.0 2.0 0.8 0.4 0.2 0.7 0.0 0.0 0.0 0.1 0.1 0.0 0.7 0.7 0.1 0.8 2.9
0.0 0.0 9.4 48.4 9.1 0.0 0.0 2.2 29.8 20.0 7.3 4.3 4.1 1.7 11.3 3.1 8.2 10.6 9.2 6.9 6.9 8.6 3.9 0.2 5.2 7.2 3.3 2.0 2.6 3.2 1.8 2.1 1.1 1.1 0.7 1.0 0.8 1.0 1.4 1.5 2.1 2.5 2.8 2.9
0.0 34.4 27.7 2.0 0.0 0.0 11.7 32.7 26.4 11.4 12.8 2.0 2.0 0.9 3.4 3.2 15.1 8.0 6.6 11.7 7.4 8.5 4.8 5.0 9.0 9.8 5.6 4.9 5.8 3.4 1.2 0.7 0.8 1.0 1.3 1.1 0.9 1.2 1.7 2.8 1.3 1.8 1.8 2.1
0.0 0.0 0.0 0.0 21.5 19.3 17.2 16.5 9.0 5.8 4.3 1.0 1.5 0.6 0.3 1.4 3.9 14.0 7.6 10.2 13.9 13.1 5.4 11.9 12.3 7.0 4.9 4.9 4.9 1.8 0.5 0.1 0.1 0.2 0.4 0.7 0.8 1.0 1.0 1.6 1.9 2.6 3.2 4.0
0.0 11.6 16.1 15.0 24.1 27.0 15.7 10.3 5.3 6.2 4.0 3.8 1.3 5.1 3.7 2.2 11.1 17.2 12.2 12.1 13.5 5.4 15.6 16.6 13.7 7.8 4.0 3.4 2.9 2.3 1.4 1.2 0.6 1.1 1.2 1.2 1.6 2.1 2.9 3.2 5.1 5.5 6.3 8.3
12.4 24.1 23.4 15.2 13.6 9.9 8.4 5.0 3.9 4.6 5.2 5.0 2.6 5.2 8.4 9.1 16.8 23.4 21.1 15.9 5.7 13.3 13.3 10.8 11.4 7.7 8.4 5.7 4.5 4.1 5.6 6.3 6.0 5.9 6.0 7.0 6.9 7.8 9.1 7.8 8.2 6.6 7.4 9.5
13.0 8.8 11.8 9.2 9.7 8.1 7.3 5.4 5.4 4.8 8.1 7.1 7.9 8.5 11.6 15.0 19.4 14.6 11.0 9.3 9.0 9.4 9.4 16.2 8.4 6.9 6.7 5.7 5.5 5.7 6.3 6.5 7.1 7.8 7.0 9.8 8.5 7.5 10.8 9.4 8.2 6.3 6.0 5.7
5.8 7.5 11.3 7.8 6.6 7.5 8.2 7.1 7.8 5.8 10.4 9.0 10.5 14.4 15.2 16.2 11.0 9.8 7.9 6.6 12.4 12.6 8.8 7.0 7.7 7.2 7.7 8.0 8.0 8.1 8.4 7.5 6.8 6.5 6.1 6.9 6.7 6.4 6.4 7.0 6.5 5.7 4.5 4.4
4.4 10.7 12.5 11.1 9.2 10.6 11.2 8.9 8.4 6.2 8.6 12.2 7.7 12.3 12.6 10.3 11.0 13.0 11.1 14.4 17.9 10.4 9.2 8.0 8.1 8.0 8.7 8.6 8.4 8.8 7.6 6.0 5.5 5.3 4.9 4.6 4.3 3.2 2.1 2.9 4.7 3.9 4.1 3.8

GFSNW_prec_snow_276.txt.gz
Snowfall_Accumulation
0.0 0.0 0.0 0.0 0.0 0.0 0.0 0.0 25.6 0.0 0.0 19.0 35.9 24.8 7.8 0.5 0.1 0.1 2.9 5.1 9.1 11.9 11.9 14.0 18.4 12.5 4.0 0.3 2.6 5.7 4.7 19.1 11.1 6.7 1.6 1.6 7.6 21.9 34.1 52.6 47.2 43.8 41.4 39.8
0.0 0.0 0.0 0.0 0.0 0.0 0.0 12.6 7.9 0.0 0.0 30.5 18.1 5.9 3.4 2.6 3.7 2.0 4.8 7.7 10.9 12.8 14.7 15.8 10.6 8.9 1.3 0.0 2.2 9.3 7.1 17.8 12.9 8.1 1.3 0.5 7.6 8.2 16.8 30.6 39.8 48.2 42.7 44.1
0.0 0.0 0.0 0.0 0.0 0.0 0.0 7.4 41.7 5.9 5.4 3.3 6.3 8.0 7.7 7.6 0.0 2.5 0.9 8.8 9.9 11.4 6.9 7.2 9.4 7.2 1.7 0.0 0.4 0.0 0.4 15.0 13.7 12.4 12.6 10.2 15.0 10.4 7.9 19.3 42.4 29.9 30.1 27.6
0.0 0.0 0.0 0.0 0.0 0.0 0.0 21.9 38.0 0.4 23.0 17.5 9.2 8.9 10.9 7.4 6.3 1.0 0.7 9.1 8.1 10.8 13.1 6.8 4.5 4.8 3.4 0.2 0.9 0.5 1.8 17.3 9.4 6.6 7.4 4.7 5.9 10.1 9.6 13.1 14.4 22.8 25.8 15.6
0.0 0.0 0.0 0.0 0.0 0.0 0.0 62.0 14.6 4.5 5.0 1.1 8.1 16.6 16.6 8.1 2.7 9.5 4.8 5.9 3.8 6.1 10.9 7.6 8.1 5.6 2.4 5.1 0.1 0.7 1.0 9.2 10.2 8.3 6.1 3.2 7.6 9.7 6.5 6.0 10.3 12.6 7.2 13.4
0.0 0.0 0.0 0.0 0.0 0.0 0.0 3.1 0.0 11.6 5.3 4.1 10.3 9.1 6.1 6.2 6.9 0.6 2.3 5.1 7.9 7.0 4.5 1.2 1.1 1.9 2.2 4.2 5.9 5.3 5.9 8.7 7.2 8.5 2.4 3.8 9.9 11.8 7.1 5.3 4.2 4.8 6.9 13.6
0.0 0.0 0.0 0.0 0.0 0.0 0.0 0.0 1.4 23.6 20.6 9.7 6.5 3.3 4.3 5.6 5.0 8.8 2.8 1.3 5.1 0.0 0.0 0.0 0.0 0.9 0.5 0.4 1.8 2.4 7.6 7.2 9.7 8.1 6.2 17.8 10.1 4.2 3.3 2.4 2.3 3.1 3.1 3.3
0.0 0.0 0.0 0.0 0.0 0.0 0.0 0.0 0.2 19.3 19.0 5.0 6.2 4.7 5.5 1.5 3.1 4.7 3.4 1.2 0.0 0.0 1.8 6.6 7.2 3.9 3.1 1.1 0.4 0.8 2.3 7.5 14.4 13.1 6.6 4.2 2.3 2.3 2.7 2.6 2.9 2.3 1.4 0.8
0.0 0.0 0.0 0.0 0.0 0.0 0.0 0.0 0.0 11.8 28.6 9.2 2.0 8.1 6.0 7.0 5.4 6.4 3.7 0.0 0.0 0.0 6.1 12.6 10.8 5.6 3.2 2.1 1.7 0.0 1.2 4.8 19.5 17.3 12.6 6.9 3.0 0.7 0.1 1.8 5.3 1.3 0.3 0.3
0.0 0.0 0.0 0.0 0.0 0.0 0.0 0.0 0.0 6.3 33.4 1.3 1.6 4.7 6.8 5.5 5.3 7.8 2.3 2.7 1.6 2.3 11.3 12.5 9.6 6.5 4.1 6.2 4.4 3.7 7.8 11.9 22.8 18.9 22.5 8.4 1.8 1.1 0.5 7.8 9.0 1.5 0.2 0.1
0.0 0.0 0.0 0.0 0.0 0.0 0.0 0.0 0.0 0.0 20.8 1.6 0.0 0.3 1.2 3.4 3.0 7.7 6.0 11.0 9.9 14.5 17.4 14.6 10.8 9.5 8.2 4.8 2.6 5.6 7.9 12.8 11.4 15.1 21.9 16.3 2.8 1.9 5.0 6.3 1.3 0.9 0.4 0.2
0.0 0.0 0.0 0.0 0.0 0.0 0.0 4.7 0.0 0.0 3.9 0.3 0.0 0.0 0.0 0.0 0.0 2.8 5.0 9.1 10.0 13.6 19.9 14.5 8.9 7.1 8.5 5.4 10.3 2.5 9.1 5.2 9.0 9.3 16.1 8.7 6.5 5.6 2.4 2.2 2.3 2.2 0.9 0.3
0.0 0.0 0.0 0.0 0.0 0.0 0.0 1.7 0.0 0.0 13.9 0.3 0.0 0.0 0.0 0.0 0.0 0.0 5.5 3.9 2.7 7.1 7.8 10.1 9.1 9.1 5.0 7.2 4.4 3.6 4.7 0.8 7.3 10.1 7.7 3.9 6.7 4.7 2.1 0.9 3.9 2.0 0.8 1.1
0.0 0.0 0.0 0.0 0.0 0.0 0.0 0.0 0.0 0.0 3.1 15.2 4.1 0.0 0.0 0.0 0.0 0.0 0.0 0.0 0.0 0.0 0.0 9.8 8.3 4.8 0.4 3.7 3.8 1.5 4.4 3.4 5.9 11.0 7.1 4.0 2.8 3.4 2.5 2.3 2.1 0.8 0.4 0.8
0.0 0.0 0.0 0.0 0.0 0.0 0.0 0.0 0.0 0.0 1.8 17.0 6.8 0.0 0.0 0.0 0.0 0.0 0.0 0.0 0.3 1.4 6.7 9.1 4.5 1.3 2.5 0.9 3.0 2.9 1.1 2.9 9.9 11.0 10.7 9.1 6.5 5.5 4.6 3.9 2.6 1.0 0.9 2.0
0.0 0.0 0.0 0.0 0.0 0.0 0.0 44.0 0.0 0.0 0.0 12.4 11.0 0.0 0.0 0.0 0.0 0.0 0.0 0.0 0.3 1.0 3.1 5.9 1.6 0.0 0.9 4.5 5.5 4.2 4.5 2.7 2.8 5.6 6.5 9.1 9.2 6.2 3.1 2.5 0.9 0.1 0.1 0.0
0.0 0.0 0.0 0.0 0.0 0.0 4.9 16.9 0.6 0.0 0.0 16.9 14.4 7.4 0.0 0.0 0.0 0.0 0.0 0.0 0.4 2.8 5.9 4.3 2.0 1.4 1.7 6.1 2.9 1.7 0.9 0.5 0.3 0.6 0.5 1.6 1.0 0.9 0.1 0.0 0.0 0.0 0.0 0.0
0.0 0.0 0.0 0.0 0.0 0.0 3.0 0.0 0.0 0.0 2.8 5.7 16.1 11.0 6.0 0.0 5.2 8.8 0.9 5.7 3.3 3.0 3.4 2.4 2.0 1.7 2.8 12.0 1.0 0.0 0.0 0.0 0.0 0.0 0.0 0.0 0.0 0.0 0.0 0.0 0.0 0.0 0.0 0.0
0.0 0.0 0.0 0.0 0.0 17.0 0.0 0.0 0.0 0.0 7.5 16.8 7.8 5.0 15.3 0.0 5.5 5.0 6.3 2.7 11.8 1.7 5.9 2.1 2.1 6.5 12.3 8.0 2.0 0.8 0.4 0.2 0.7 0.0 0.0 0.0 0.1 0.1 0.0 0.7 0.7 0.1 0.8 2.9
0.0 0.0 9.4 48.4 9.1 0.0 0.0 2.2 29.8 20.0 7.3 4.3 4.1 1.7 11.3 3.1 8.2 10.6 9.2 6.9 6.9 8.6 3.9 0.2 5.2 7.2 3.3 2.0 2.6 3.2 1.8 2.1 1.1 1.1 0.7 1.0 0.8 1.0 1.4 1.5 2.1 2.5 2.8 2.9
0.0 34.4 27.7 2.0 0.0 0.0 11.7 32.7 26.4 11.4 12.8 2.0 2.0 0.9 3.4 3.2 15.1 8.0 6.6 11.7 7.4 8.5 4.8 5.0 9.0 9.8 5.6 4.9 5.8 3.4 1.2 0.7 0.8 1.0 1.3 1.1 0.9 1.2 1.7 2.8 1.3 1.8 1.8 2.1
0.0 0.0 0.0 0.0 21.5 19.3 24.0 21.7 10.9 5.8 4.3 1.0 1.5 0.6 0.3 1.4 3.9 14.0 7.6 10.2 13.9 13.1 5.4 11.9 12.3 7.0 4.9 4.9 4.9 1.8 0.5 0.1 0.1 0.2 0.4 0.7 0.8 1.0 1.0 1.6 1.9 2.6 3.2 4.0
0.0 11.6 16.1 15.0 30.5 34.2 20.8 13.2 6.0 6.2 4.0 3.8 1.3 5.1 3.7 2.2 11.1 17.2 12.2 12.1 13.5 5.4 15.6 16.6 13.7 7.8 4.0 3.4 2.9 2.3 1.4 1.2 0.6 1.1 1.2 1.2 1.6 2.1 2.9 3.2 5.1 5.5 6.3 8.3
12.4 24.1 26.7 20.4 16.9 9.9 8.4 5.0 3.9 4.6 5.2 5.0 2.6 5.2 8.4 9.1 16.8 23.4 21.1 15.9 5.7 13.3 13.3 10.8 11.4 7.7 8.4 5.7 4.5 4.1 5.6 6.3 6.0 5.9 6.0 7.0 6.9 7.8 9.1 7.8 8.2 6.6 7.4 9.5
13.0 8.8 12.7 10.0 9.7 8.1 7.3 5.4 5.4 4.8 8.1 7.1 7.9 8.5 11.6 15.0 19.4 14.6 11.0 9.3 9.0 9.4 9.4 16.2 8.4 6.9 6.7 5.7 5.5 5.7 6.3 6.5 7.1 7.8 7.0 9.8 8.5 7.5 10.8 9.4 8.2 6.3 6.0 5.7
5.8 7.5 11.3 7.8 6.6 7.5 8.2 7.1 7.8 5.8 10.4 9.0 10.5 14.4 15.2 16.2 11.0 9.8 7.9 6.6 12.4 12.6 8.8 7.0 7.7 7.2 7.7 8.0 8.0 8.1 8.4 7.5 6.8 6.5 6.1 6.9 6.7 6.4 6.4 7.0 6.5 5.7 4.5 4.4
4.4 10.7 12.5 11.1 9.2 10.6 11.2 8.9 8.4 6.2 8.6 12.2 7.7 12.3 12.6 10.3 11.0 13.0 11.1 14.4 17.9 10.4 9.2 8.0 8.1 8.0 8.7 8.6 8.4 8.8 7.6 6.0 5.5 5.3 4.9 4.6 4.3 3.2 2.1 2.9 4.7 3.9 4.1 3.8

GFSNW_prec_snow_282.txt.gz
Snowfall_Accumulation
0.0 0.0 0.0 0.0 0.0 0.0 0.0 0.0 25.6 0.0 0.0 19.0 35.9 24.8 7.8 0.5 0.1 0.1 2.9 5.1 9.1 11.9 11.9 14.0 18.4 12.5 4.0 0.3 2.6 5.7 4.7 19.1 11.1 6.7 1.6 1.6 7.6 21.9 34.1 52.6 47.2 43.8 41.4 39.8
0.0 0.0 0.0 0.0 0.0 0.0 0.0 12.6 7.9 0.0 0.0 36.9 21.4 5.9 3.4 2.6 3.7 2.0 4.8 7.7 10.9 12.8 14.7 15.8 10.6 8.9 1.3 0.0 2.2 9.3 7.1 17.8 12.9 8.1 1.3 0.5 7.6 8.2 16.8 30.6 39.8 48.2 42.7 44.1
0.0 0.0 0.0 0.0 0.0 0.0 0.0 7.4 41.7 5.9 5.4 3.3 6.3 8.0 7.7 7.6 0.0 2.5 0.9 8.8 9.9 11.4 6.9 7.2 9.4 7.2 1.7 0.0 0.4 0.0 0.4 15.0 13.7 12.4 12.6 10.2 15.0 10.4 7.9 19.3 42.4 29.9 30.1 27.6
0.0 0.0 0.0 0.0 0.0 0.0 0.0 21.9 38.0 0.4 24.3 17.5 9.2 8.9 10.9 7.4 6.3 1.0 0.7 9.1 8.1 10.8 13.1 6.8 4.5 4.8 3.4 0.2 0.9 0.5 1.8 17.3 9.4 6.6 7.4 4.7 5.9 10.1 9.6 13.1 14.4 22.8 25.8 15.6
0.0 0.0 0.0 0.0 0.0 0.0 0.0 62.0 14.6 4.5 5.0 1.1 8.1 16.6 16.6 8.1 2.7 9.5 4.8 5.9 3.8 6.1 10.9 7.6 8.1 5.6 2.4 5.1 0.1 0.7 1.0 9.2 10.2 8.3 6.1 3.2 7.6 9.7 6.5 6.0 10.3 12.6 7.2 13.4
0.0 0.0 0.0 0.0 0.0 0.0 0.0 3.1 0.0 11.6 5.3 4.1 10.3 9.1 6.1 6.2 6.9 0.6 2.3 5.1 7.9 7.0 4.5 1.2 1.1 1.9 2.2 4.2 5.9 5.3 5.9 8.7 7.2 8.5 2.4 3.8 9.9 11.8 7.1 5.3 4.2 4.8 6.9 13.6
0.0 0.0 0.0 0.0 0.0 0.0 0.0 0.0 1.4 23.6 20.6 9.7 6.5 3.3 4.3 5.6 5.0 8.8 2.8 1.3 5.1 0.0 0.0 0.0 0.0 0.9 0.5 0.4 1.8 2.4 7.6 7.2 9.7 8.1 6.2 17.8 10.1 4.2 3.3 2.4 2.3 3.1 3.1 3.3
0.0 0.0 0.0 0.0 0.0 0.0 0.0 0.0 0.2 19.3 19.0 5.0 6.2 4.7 5.5 1.5 3.1 4.7 3.4 1.2 0.0 0.0 1.8 6.6 7.2 3.9 3.1 1.1 0.4 0.8 2.3 7.5 14.4 13.1 6.6 4.2 2.3 2.3 2.7 2.6 2.9 2.3 1.4 0.8
0.0 0.0 0.0 0.0 0.0 0.0 0.0 0.0 0.0 11.8 28.6 9.2 2.0 8.1 6.0 7.0 5.4 6.4 3.7 0.0 0.0 0.0 6.1 12.6 10.8 5.6 3.2 2.1 1.7 0.0 1.2 4.8 19.5 17.3 12.6 6.9 3.0 0.7 0.1 1.8 5.3 1.3 0.3 0.3
0.0 0.0 0.0 0.0 0.0 0.0 0.0 0.0 0.0 6.3 33.4 1.3 1.6 4.7 6.8 5.5 5.3 7.8 2.3 2.7 1.6 2.3 11.3 12.5 9.6 6.5 4.1 6.2 4.4 3.7 7.8 11.9 22.8 18.9 22.5 8.4 1.8 1.1 0.5 7.8 9.0 1.5 0.2 0.1
0.0 0.0 0.0 0.0 0.0 0.0 0.0 0.0 0.0 0.0 20.8 1.6 0.0 0.3 1.2 3.4 3.0 7.7 6.0 11.0 9.9 14.5 17.4 14.6 10.8 9.5 8.2 4.8 2.6 5.6 7.9 12.8 11.4 15.1 21.9 16.3 2.8 1.9 5.0 6.3 1.3 0.9 0.4 0.2
0.0 0.0 0.0 0.0 0.0 0.0 0.0 4.7 0.0 0.0 3.9 0.3 0.0 0.0 0.0 0.0 0.0 2.8 5.0 9.1 10.0 13.6 19.9 14.5 8.9 7.1 8.5 5.4 10.3 2.5 9.1 5.2 9.0 9.3 16.1 8.7 6.5 5.6 2.4 2.2 2.3 2.2 0.9 0.3
0.0 0.0 0.0 0.0 0.0 0.0 0.0 1.7 0.0 0.0 13.9 0.3 0.0 0.0 0.0 0.0 0.0 0.0 5.5 3.9 2.7 7.1 7.8 10.1 9.1 9.1 5.0 7.2 4.4 3.6 4.7 0.8 7.3 10.1 7.7 3.9 6.7 4.7 2.1 0.9 3.9 2.0 0.8 1.1
0.0 0.0 0.0 0.0 0.0 0.0 0.0 0.0 0.0 0.0 3.1 16.9 4.1 0.0 0.0 0.0 0.0 0.0 0.0 0.0 0.0 0.0 0.0 9.8 8.3 4.8 0.4 3.7 3.8 1.5 4.4 3.4 5.9 11.0 7.1 4.0 2.8 3.4 2.5 2.3 2.1 0.8 0.4 0.8
0.0 0.0 0.0 0.0 0.0 0.0 0.0 0.0 0.0 0.0 1.8 17.0 6.8 0.0 0.0 0.0 0.0 0.0 0.0 0.0 0.3 1.4 6.7 9.1 4.5 1.3 2.5 0.9 3.0 2.9 1.1 2.9 9.9 11.0 10.7 9.1 6.5 5.5 4.6 3.9 2.6 1.0 0.9 2.0
0.0 0.0 0.0 0.0 0.0 0.0 0.0 44.0 0.0 0.0 0.0 12.4 11.0 0.0 0.0 0.0 0.0 0.0 0.0 0.0 0.3 1.0 3.1 5.9 1.6 0.0 0.9 4.5 5.5 4.2 4.5 2.7 2.8 5.6 6.5 9.1 9.2 6.2 3.1 2.5 0.9 0.1 0.1 0.0
0.0 0.0 0.0 0.0 0.0 0.0 4.9 16.9 0.6 0.0 0.0 16.9 18.1 7.4 0.0 0.0 0.0 0.0 0.0 0.0 0.4 2.8 5.9 4.3 2.0 1.4 1.7 6.1 2.9 1.7 0.9 0.5 0.3 0.6 0.5 1.6 1.0 0.9 0.1 0.0 0.0 0.0 0.0 0.0
0.0 0.0 0.0 0.0 0.0 0.0 3.0 0.0 0.0 0.0 2.8 5.7 21.0 11.0 6.0 0.0 5.2 8.8 0.9 5.7 3.3 3.0 3.4 2.4 2.0 1.7 2.8 12.0 1.0 0.0 0.0 0.0 0.0 0.0 0.0 0.0 0.0 0.0 0.0 0.0 0.0 0.0 0.0 0.0
0.0 0.0 0.0 0.0 0.0 17.0 0.0 0.0 0.0 0.0 7.5 16.8 7.8 6.3 18.8 0.0 5.5 5.0 6.3 2.7 11.8 1.7 5.9 2.1 2.1 6.5 12.3 8.0 2.0 0.8 0.4 0.2 0.7 0.0 0.0 0.0 0.1 0.1 0.0 0.7 0.7 0.1 0.8 2.9
0.0 0.0 9.4 57.0 9.1 0.0 0.0 2.2 29.8 20.0 7.3 4.3 4.1 1.7 11.3 3.1 8.2 10.6 9.2 6.9 6.9 8.6 3.9 0.2 5.2 7.2 3.3 2.0 2.6 3.2 1.8 2.1 1.1 1.1 0.7 1.0 0.8 1.0 1.4 1.5 2.1 2.5 2.8 2.9
0.0 34.4 34.2 2.0 0.0 0.0 11.7 43.7 31.8 15.0 16.0 2.0 2.0 0.9 3.4 3.2 15.1 8.0 6.6 11.7 7.4 8.5 4.8 5.0 9.0 9.8 5.6 4.9 5.8 3.4 1.2 0.7 0.8 1.0 1.3 1.1 0.9 1.2 1.7 2.8 1.3 1.8 1.8 2.1
0.0 0.0 0.0 0.0 21.5 29.1 32.6 28.1 16.7 5.8 4.3 1.0 1.5 0.6 0.3 1.4 3.9 14.0 7.6 10.2 13.9 13.1 5.4 11.9 12.3 7.0 4.9 4.9 4.9 1.8 0.5 0.1 0.1 0.2 0.4 0.7 0.8 1.0 1.0 1.6 1.9 2.6 3.2 4.0
0.0 11.6 22.7 16.4 37.2 40.8 25.4 15.0 8.8 7.7 4.0 3.8 1.3 5.1 3.7 2.2 11.1 17.2 12.2 12.1 13.5 5.4 15.6 16.6 13.7 7.8 4.0 3.4 2.9 2.3 1.4 1.2 0.6 1.1 1.2 1.2 1.6 2.1 2.9 3.2 5.1 5.5 6.3 8.3
12.4 28.9 30.7 23.2 18.9 10.9 8.4 5.0 3.9 4.6 5.2 5.0 2.6 5.2 8.4 9.1 16.8 23.4 21.1 15.9 5.7 13.3 13.3 10.8 11.4 7.7 8.4 5.7 4.5 4.1 5.6 6.3 6.0 5.9 6.0 7.0 6.9 7.8 9.1 7.8 8.2 6.6 7.4 9.5
13.0 8.8 13.7 11.0 9.7 8.1 7.3 5.4 5.4 4.8 8.1 7.1 7.9 8.5 11.6 15.0 19.4 14.6 11.0 9.3 9.0 9.4 9.4 16.2 8.4 6.9 6.7 5.7 5.5 5.7 6.3 6.5 7.1 7.8 7.0 9.8 8.5 7.5 10.8 9.4 8.2 6.3 6.0 5.7
5.8 9.1 11.3 7.8 6.6 7.5 8.2 7.1 7.8 5.8 10.4 9.0 10.5 14.4 15.2 16.2 11.0 9.8 7.9 6.6 12.4 12.6 8.8 7.0 7.7 7.2 7.7 8.0 8.0 8.1 8.4 7.5 6.8 6.5 6.1 6.9 6.7 6.4 6.4 7.0 6.5 5.7 4.5 4.4
5.5 10.7 12.5 11.1 9.2 10.6 11.2 8.9 8.4 6.2 8.6 12.2 7.7 12.3 12.6 10.3 11.0 13.0 11.1 14.4 17.9 10.4 9.2 8.0 8.1 8.0 8.7 8.6 8.4 8.8 7.6 6.0 5.5 5.3 4.9 4.6 4.3 3.2 2.1 2.9 4.7 3.9 4.1 3.8

GFSNW_prec_snow_288.txt.gz
Snowfall_Accumulation
0.0 0.0 0.0 0.0 0.0 0.0 0.0 0.0 25.6 0.0 0.0 21.6 41.6 28.5 7.8 0.5 0.1 0.1 2.9 5.1 9.1 11.9 11.9 14.0 18.4 12.5 4.0 0.3 2.6 5.7 4.7 19.1 11.1 6.7 1.6 1.6 7.6 21.9 34.1 52.6 47.2 43.8 41.4 39.8
0.0 0.0 0.0 0.0 0.0 0.0 0.0 12.6 7.9 0.0 0.0 39.3 25.0 5.9 3.4 2.6 3.7 2.0 4.8 7.7 10.9 12.8 14.7 15.8 10.6 8.9 1.3 0.0 2.2 9.3 7.1 17.8 12.9 8.1 1.3 0.5 7.6 8.2 16.8 30.6 39.8 48.2 42.7 44.1
0.0 0.0 0.0 0.0 0.0 0.0 0.0 7.4 41.8 5.9 5.4 3.3 6.7 9.6 7.7 7.6 0.0 2.5 0.9 8.8 9.9 11.4 6.9 7.2 9.4 7.2 1.7 0.0 0.4 0.0 0.4 15.0 13.7 12.4 12.6 10.2 15.0 10.4 7.9 19.3 42.4 29.9 30.1 27.6
0.0 0.0 0.0 0.0 0.0 0.0 0.0 21.9 38.0 0.4 24.3 17.5 9.2 8.9 10.9 7.4 6.3 1.0 0.7 9.1 8.1 10.8 13.1 6.8 4.5 4.8 3.4 0.2 0.9 0.5 1.8 17.3 9.4 6.6 7.4 4.7 5.9 10.1 9.6 13.1 14.4 22.8 25.8 15.6
0.0 0.0 0.0 0.0 0.0 0.0 0.0 62.4 14.7 4.5 5.0 1.1 8.1 16.6 16.6 8.1 2.7 9.5 4.8 5.9 3.8 6.1 10.9 7.6 8.1 5.6 2.4 5.1 0.1 0.7 1.0 9.2 10.2 8.3 6.1 3.2 7.6 9.7 6.5 6.0 10.3 12.6 7.2 13.4
0.0 0.0 0.0 0.0 0.0 0.0 0.0 3.1 0.0 11.6 5.3 4.1 10.3 9.5 6.1 6.2 6.9 0.6 2.3 5.1 7.9 7.0 4.5 1.2 1.1 1.9 2.2 4.2 5.9 5.3 5.9 8.7 7.2 8.5 2.4 3.8 9.9 11.8 7.1 5.3 4.2 4.8 6.9 13.6
0.0 0.0 0.0 0.0 0.0 0.0 0.0 0.0 1.4 23.8 20.7 9.7 6.5 3.3 4.3 5.6 5.0 8.8 2.8 1.3 5.1 0.0 0.0 0.0 0.0 0.9 0.5 0.4 1.8 2.4 7.6 7.2 9.7 8.1 6.2 17.8 10.1 4.2 3.3 2.4 2.3 3.1 3.1 3.3
0.0 0.0 0.0 0.0 0.0 0.0 0.0 0.0 0.2 19.3 19.1 5.0 6.2 4.7 5.5 1.5 3.1 4.7 3.4 1.2 0.0 0.0 1.8 6.6 7.2 3.9 3.1 1.1 0.4 0.8 2.3 7.5 14.4 13.1 6.6 4.2 2.3 2.3 2.7 2.6 2.9 2.3 1.4 0.8
0.0 0.0 0.0 0.0 0.0 0.0 0.0 0.0 0.0 11.8 28.8 9.2 2.0 8.1 6.0 7.8 5.4 6.4 3.7 0.0 0.0 0.0 6.1 12.6 10.8 5.6 3.2 2.1 1.7 0.0 1.2 4.8 19.5 17.3 12.6 6.9 3.0 0.7 0.1 1.8 5.3 1.3 0.3 0.3
0.0 0.0 0.0 0.0 0.0 0.0 0.0 0.0 0.0 6.3 33.7 1.3 1.6 4.7 7.8 5.5 5.3 7.8 2.3 2.7 1.6 2.3 11.3 12.5 9.6 6.5 4.1 6.2 4.4 3.7 7.8 11.9 22.8 18.9 22.5 8.4 1.8 1.1 0.5 7.8 9.0 1.5 0.2 0.1
0.0 0.0 0.0 0.0 0.0 0.0 0.0 0.0 0.0 0.0 20.8 1.6 0.0 0.3 2.7 5.0 3.0 7.7 6.0 11.0 9.9 14.5 17.4 14.6 10.8 9.5 8.2 4.8 2.6 5.6 7.9 12.8 11.4 15.1 21.9 16.3 2.8 1.9 5.0 6.3 1.3 0.9 0.4 0.2
0.0 0.0 0.0 0.0 0.0 0.0 0.0 4.7 0.0 0.0 3.9 0.3 0.0 0.0 0.0 0.0 0.0 4.7 5.0 9.1 10.0 13.6 19.9 14.5 8.9 7.1 8.5 5.4 10.3 2.5 9.1 5.2 9.0 9.3 16.1 8.7 6.5 5.6 2.4 2.2 2.3 2.2 0.9 0.3
0.0 0.0 0.0 0.0 0.0 0.0 0.0 1.7 0.0 0.0 13.9 0.3 0.0 0.0 0.0 0.0 0.0 0.0 6.1 3.9 2.7 7.1 7.8 10.1 9.1 9.1 5.0 7.2 4.4 3.6 4.7 0.8 7.3 10.1 7.7 3.9 6.7 4.7 2.1 0.9 3.9 2.0 0.8 1.1
0.0 0.0 0.0 0.0 0.0 0.0 0.0 0.0 0.0 0.0 3.1 17.0 4.1 0.0 0.0 0.0 0.0 0.0 0.0 0.0 0.0 0.0 0.0 9.8 8.3 4.8 0.4 3.7 3.8 1.5 4.4 3.4 5.9 11.0 7.1 4.0 2.8 3.4 2.5 2.3 2.1 0.8 0.4 0.8
0.0 0.0 0.0 0.0 0.0 0.0 0.0 0.0 0.0 0.0 1.8 17.1 6.8 0.0 0.0 0.0 0.0 0.0 0.0 0.0 0.3 1.4 6.7 9.1 4.5 1.3 2.5 0.9 3.0 2.9 1.1 2.9 9.9 11.0 10.7 9.1 6.5 5.5 4.6 3.9 2.6 1.0 0.9 2.0
0.0 0.0 0.0 0.0 0.0 0.0 0.0 44.0 0.0 0.0 0.0 12.4 11.1 0.0 0.0 0.0 0.0 0.0 0.0 0.0 0.3 1.0 3.1 5.9 1.6 0.0 0.9 4.5 5.5 4.2 4.5 2.7 2.8 5.6 6.5 9.1 9.2 6.2 3.1 2.5 0.9 0.1 0.1 0.0
0.0 0.0 0.0 0.0 0.0 0.0 4.9 16.9 0.6 0.0 0.0 16.9 18.2 7.4 0.0 0.0 0.0 0.0 0.0 0.0 0.4 2.8 5.9 4.3 2.0 1.4 1.7 6.1 2.9 1.7 0.9 0.5 0.3 0.6 0.5 1.6 1.0 0.9 0.1 0.0 0.0 0.0 0.0 0.0
0.0 0.0 0.0 0.0 0.0 0.0 3.0 0.0 0.0 0.0 2.8 5.7 21.1 11.0 6.0 0.0 5.2 8.8 0.9 5.7 3.3 3.0 3.4 2.4 2.0 1.7 2.8 12.0 1.0 0.0 0.0 0.0 0.0 0.0 0.0 0.0 0.0 0.0 0.0 0.0 0.0 0.0 0.0 0.0
0.0 0.0 0.0 0.0 0.0 17.0 0.0 0.0 0.0 0.0 7.5 16.9 7.8 6.3 18.9 0.0 5.5 5.0 6.3 2.7 11.8 1.7 5.9 2.1 2.1 6.5 12.3 8.0 2.0 0.8 0.4 0.2 0.7 0.0 0.0 0.0 0.1 0.1 0.0 0.7 0.7 0.1 0.8 2.9
0.0 0.0 9.4 66.4 9.1 0.0 0.0 2.2 29.8 20.0 7.3 4.3 4.1 1.7 11.6 3.1 8.2 10.6 9.2 6.9 6.9 8.6 3.9 0.2 5.2 7.2 3.3 2.0 2.6 3.2 1.8 2.1 1.1 1.1 0.7 1.0 0.8 1.0 1.4 1.5 2.1 2.5 2.8 2.9
0.0 34.4 39.0 2.0 0.0 0.0 11.7 47.7 33.3 15.6 16.1 2.0 2.0 0.9 3.4 3.2 15.1 8.0 6.6 11.7 7.4 8.6 4.8 5.0 9.0 9.8 5.6 4.9 5.8 3.4 1.2 0.7 0.8 1.0 1.3 1.1 0.9 1.2 1.7 2.8 1.3 1.8 1.8 2.1
0.0 0.0 0.0 0.0 21.5 32.6 35.8 29.8 16.9 5.8 4.3 1.0 1.5 0.6 0.3 1.4 3.9 14.0 7.6 10.2 13.9 13.1 5.4 11.9 12.3 7.0 4.9 4.9 4.9 1.8 0.5 0.1 0.1 0.2 0.4 0.7 0.8 1.0 1.0 1.6 1.9 2.6 3.2 4.0
0.0 11.6 26.7 19.5 40.6 43.0 26.6 15.6 8.8 7.7 4.0 3.8 1.3 5.1 3.7 2.2 11.1 17.2 12.2 12.1 13.5 5.4 15.6 16.6 13.7 7.8 4.0 3.4 2.9 2.3 1.4 1.2 0.6 1.1 1.2 1.2 1.6 2.1 2.9 3.2 5.1 5.5 6.3 8.3
12.4 30.5 33.0 24.5 19.5 10.9 8.4 5.0 3.9 4.6 5.2 5.0 2.6 5.2 8.4 9.1 18.5 24.0 21.1 15.9 5.7 13.3 13.3 10.8 11.4 7.7 8.4 5.7 4.5 4.1 5.6 6.3 6.0 5.9 6.0 7.0 6.9 7.8 9.1 7.8 8.2 6.6 7.4 9.5
13.5 9.1 14.0 11.0 9.7 8.1 7.3 5.4 5.4 4.8 8.1 7.1 7.9 8.5 11.6 15.0 20.1 14.9 11.0 9.3 9.0 9.4 9.4 16.2 8.4 6.9 6.7 5.7 5.5 5.7 6.3 6.5 7.1 7.8 7.0 9.8 8.5 7.5 10.8 9.4 8.2 6.3 6.0 5.7
5.8 9.2 11.3 7.8 6.6 7.5 8.2 7.1 7.8 5.8 10.4 9.0 10.5 14.4 15.2 16.2 11.0 9.9 7.9 6.6 12.4 12.6 8.8 7.0 7.7 7.2 7.7 8.0 8.0 8.1 8.4 7.5 6.8 6.5 6.1 6.9 6.7 6.4 6.4 7.0 6.5 5.7 4.5 4.4
5.7 10.7 12.5 11.1 9.2 10.6 11.2 8.9 8.4 6.2 8.6 12.2 7.7 12.3 12.6 10.3 11.0 13.0 11.1 14.4 17.9 10.4 9.2 8.0 8.1 8.0 8.7 8.6 8.4 8.8 7.6 6.0 5.5 5.3 4.9 4.6 4.3 3.2 2.1 2.9 4.7 3.9 4.1 3.8